Date,TemperatureHighF,TemperatureAvgF,TemperatureLowF,DewpointHighF,DewpointAvgF,DewpointLowF,HumidityHigh,HumidityAvg,HumidityLow,PressureMaxIn,PressureMinIn,WindSpeedMaxMPH,WindSpeedAvgMPH,GustSpeedMaxMPH,PrecipitationSumIn
2013-1-1,34,32,31,30,28,27,86,85,82,30.02,29.98,0,0,0,0.00
2013-1-2,29,25,22,17,15,14,75,66,58,30.19,30.12,7,1,8,0.00
2013-1-3,36,26,17,24,18,12,82,71,59,30.20,30.11,9,1,9,0.00
2013-1-4,34,29,27,23,20,18,74,69,61,30.25,30.16,8,2,10,0.00
2013-1-5,39,31,24,26,22,18,78,70,58,30.36,30.15,7,1,8,8.01
2013-1-6,40,36,33,29,26,23,80,69,63,30.19,30.00,8,1,12,0.09
2013-1-7,34,31,24,29,23,18,81,75,67,30.45,30.20,8,1,8,0.00
2013-1-8,48,33,22,34,24,18,83,71,53,30.36,30.23,6,1,8,0.00
2013-1-9,47,38,30,41,32,23,87,79,66,30.47,30.23,8,0,8,0.02
2013-1-10,45,37,28,36,30,24,88,77,60,30.57,30.24,6,0,7,0.01
2013-1-11,61,53,43,52,44,30,87,74,56,30.24,29.97,7,0,11,0.13
2013-1-12,67,59,54,56,52,50,88,79,64,30.11,29.96,7,0,7,0.00
2013-1-13,69,62,56,54,51,49,86,69,58,30.00,29.89,6,0,8,0.23
2013-1-14,58,42,34,53,35,26,87,75,64,30.33,29.93,6,0,8,0.07
2013-1-15,34,32,30,29,25,22,87,75,70,30.34,30.03,8,3,9,0.17
2013-1-16,36,34,32,33,31,29,88,88,86,30.03,29.86,7,1,8,0.30
2013-1-17,35,33,29,30,27,25,86,80,73,30.17,30.03,7,0,7,0.00
2013-1-18,33,28,21,25,16,11,82,60,49,30.48,30.15,11,3,17,0.00
2013-1-19,54,42,30,26,20,13,51,41,33,30.26,29.89,11,4,12,0.00
2013-1-20,44,38,28,29,19,10,58,46,29,30.11,29.87,12,5,12,0.00
2013-1-21,35,26,14,17,12,-2,71,57,45,30.08,29.88,9,3,15,0.00
2013-1-22,17,12,7,1,-2,-4,62,53,44,30.24,30.03,14,3,14,0.00
2013-1-23,21,14,6,10,1,-4,72,57,45,30.28,30.02,8,1,8,0.00
2013-1-24,22,17,12,10,7,3,77,65,46,30.48,30.00,9,1,11,0.00
2013-1-25,23,18,12,16,9,2,79,68,54,30.46,29.98,7,1,8,0.00
2013-1-26,30,25,21,23,18,12,81,74,63,30.39,30.07,8,1,10,0.00
2013-1-27,35,27,19,20,16,11,75,63,52,30.48,30.26,7,0,7,0.09
2013-1-28,51,42,31,47,38,20,89,83,64,30.27,30.05,12,1,14,0.53
2013-1-29,66,57,50,55,50,47,89,78,61,30.08,29.83,8,1,8,0.03
2013-1-30,71,58,47,54,50,43,87,75,54,29.83,29.31,19,2,19,2.09
2013-1-31,47,30,24,43,21,12,85,69,55,29.87,29.29,17,4,20,0.06
2013-2-1,25,17,10,20,8,2,82,68,55,30.31,29.80,11,3,16,0.00
2013-2-2,28,19,9,21,11,2,82,71,55,30.30,29.95,12,2,12,0.01
2013-2-3,32,26,19,25,20,11,83,78,70,30.03,29.80,10,1,11,0.00
2013-2-4,33,26,19,28,18,11,85,74,58,30.07,29.84,7,1,16,0.00
2013-2-5,36,33,31,32,29,27,87,84,75,29.93,29.82,6,0,8,0.00
2013-2-6,34,31,26,28,25,21,86,80,70,30.29,29.93,6,1,8,0.00
2013-2-7,44,33,24,32,26,20,85,74,58,30.26,29.96,8,1,8,0.13
2013-2-8,42,35,26,35,28,18,85,77,71,30.17,29.81,15,3,19,0.11
2013-2-9,34,27,23,21,18,16,78,68,54,30.36,30.17,10,2,10,0.00
2013-2-10,54,36,19,31,22,14,82,60,35,30.32,29.98,8,1,9,0.02
2013-2-11,63,51,41,47,36,25,79,59,33,29.97,29.71,13,4,16,0.02
2013-2-12,50,41,32,28,24,20,60,51,38,30.07,29.89,10,3,10,0.00
2013-2-13,42,33,28,29,25,19,84,72,54,29.93,29.64,6,1,9,0.00
2013-2-14,45,35,29,32,27,23,82,74,59,29.98,29.86,11,1,11,0.04
2013-2-15,42,36,31,31,28,25,84,72,57,30.05,29.92,7,1,9,0.02
2013-2-16,31,27,23,24,16,10,78,65,54,30.02,29.90,8,2,9,0.00
2013-2-17,24,19,16,16,9,5,76,65,55,30.23,29.90,12,4,12,0.01
2013-2-18,49,31,12,30,16,3,72,56,41,30.27,29.89,9,1,9,0.00
2013-2-19,45,38,26,37,28,17,81,67,47,29.96,29.70,13,3,18,0.10
2013-2-20,26,22,20,18,12,7,77,64,57,30.21,29.95,12,4,13,0.00
2013-2-21,28,23,20,15,13,9,74,65,57,30.30,30.17,9,2,9,0.00
2013-2-22,45,36,23,36,27,14,81,70,53,30.22,29.96,10,1,10,0.02
2013-2-23,57,43,34,40,33,28,80,70,51,29.96,29.82,6,0,7,0.01
2013-2-24,35,31,27,28,23,18,78,71,62,30.13,29.85,8,2,8,0.00
2013-2-25,43,34,25,24,21,17,75,60,46,30.19,30.00,8,2,9,0.00
2013-2-26,41,38,35,33,26,19,82,64,48,30.03,29.56,16,2,16,0.42
2013-2-27,42,39,33,36,34,29,86,82,76,29.70,29.56,9,1,9,0.30
2013-2-28,34,33,32,30,28,27,86,84,81,29.81,29.65,8,1,9,0.04
2013-3-1,33,31,28,28,24,21,82,76,65,29.95,29.80,8,3,12,0.01
2013-3-2,30,27,25,22,20,18,79,73,65,29.95,29.88,8,3,10,0.01
2013-3-3,30,26,24,20,18,15,80,72,59,30.00,29.90,10,2,12,0.00
2013-3-4,38,29,23,20,16,13,69,59,45,30.12,29.99,8,1,8,0.00
2013-3-5,50,36,25,29,22,16,83,59,37,30.06,29.62,10,1,12,0.01
2013-3-6,38,34,31,31,28,27,86,80,68,30.10,29.61,7,1,8,0.30
2013-3-7,34,34,34,29,29,28,82,81,80,30.10,30.08,2,0,2,0.00
2013-3-11,53,52,52,45,45,45,78,76,75,29.79,29.78,2,0,2,0.05
2013-3-12,52,40,36,46,33,26,84,77,67,30.02,29.77,8,2,9,0.21
2013-3-13,36,33,32,28,27,24,84,78,67,30.01,29.93,4,0,6,0.00
2013-3-14,40,34,25,21,18,16,73,53,41,30.23,30.11,11,5,14,0.00
2013-3-15,54,40,27,33,25,16,64,55,44,30.13,29.82,8,2,9,0.00
2013-3-16,59,46,38,49,39,32,85,77,58,29.94,29.61,9,2,12,0.04
2013-3-17,39,35,31,32,24,20,80,65,54,30.15,29.94,8,4,10,0.00
2013-3-18,47,38,33,40,32,24,84,76,59,30.10,29.71,14,2,23,0.70
2013-3-19,49,42,34,43,27,14,86,59,32,29.98,29.70,13,4,17,0.00
2013-3-20,46,35,27,21,16,13,57,45,35,29.99,29.78,12,4,18,0.00
2013-3-21,29,25,19,18,11,7,73,56,44,29.93,29.84,11,4,14,0.00
2013-3-22,42,32,24,21,16,12,65,53,40,30.00,29.92,10,3,12,0.00
2013-3-23,48,36,23,23,19,15,71,52,34,30.03,29.95,9,2,9,0.00
2013-3-24,43,34,29,28,22,19,83,64,44,29.96,29.48,8,3,9,0.00
2013-3-25,40,34,31,32,29,27,85,80,72,29.73,29.45,5,0,8,0.39
2013-3-26,43,36,32,30,28,27,86,75,55,30.08,29.73,13,2,16,0.12
2013-3-27,44,36,32,30,26,23,82,68,51,30.16,30.06,12,3,16,0.02
2013-3-28,44,38,34,28,25,22,68,59,50,30.25,30.13,9,3,11,0.00
2013-3-29,54,44,36,31,27,23,68,51,36,30.26,30.16,10,2,10,0.00
2013-3-30,56,45,31,27,24,22,72,46,30,30.25,30.01,8,1,8,0.00
2013-3-31,50,46,43,45,36,24,83,70,45,30.01,29.76,3,0,7,0.13
2013-4-1,46,42,35,41,30,15,86,63,33,30.03,29.75,11,4,13,0.00
2013-4-2,43,35,27,17,14,11,54,43,33,30.19,30.01,11,4,14,0.00
2013-4-3,43,34,25,19,15,10,63,47,31,30.35,30.18,10,3,13,0.00
2013-4-4,60,45,22,24,20,12,68,39,25,30.29,29.98,6,1,8,0.00
2013-4-5,58,46,34,33,25,20,66,44,33,30.14,29.94,10,3,14,0.00
2013-4-6,40,33,28,24,19,17,68,57,46,30.27,30.14,7,1,8,0.00
2013-4-7,76,64,53,47,40,29,57,42,33,30.02,29.92,12,4,12,0.00
2013-4-8,79,66,52,51,46,43,73,52,35,30.06,29.93,8,2,8,0.00
2013-4-9,84,70,57,56,51,46,67,51,38,30.12,29.97,8,2,9,0.00
2013-4-10,88,74,63,61,54,48,70,50,37,30.01,29.83,13,4,17,0.00
2013-4-11,86,69,57,58,54,50,77,60,38,29.91,29.68,7,2,10,0.00
2013-4-12,69,60,49,57,46,33,84,62,39,29.87,29.56,13,3,19,0.09
2013-4-13,63,51,39,38,32,28,65,51,35,30.00,29.86,13,3,13,0.00
2013-4-14,65,52,36,38,33,27,72,51,33,30.16,30.00,7,1,9,0.00
2013-4-15,68,62,56,49,44,38,66,53,42,30.13,29.99,8,1,12,0.00
2013-4-16,84,68,55,60,53,45,86,61,43,30.24,30.06,9,1,13,0.30
2013-4-17,68,61,57,58,55,54,89,82,69,30.24,30.10,5,0,5,0.01
2013-4-18,87,73,62,64,57,52,76,59,42,30.12,29.83,8,1,10,0.01
2013-4-19,73,61,45,59,48,32,79,65,53,29.90,29.54,14,2,16,0.09
2013-4-20,53,44,37,32,27,22,67,51,36,30.36,29.90,17,3,17,0.00
2013-4-21,56,43,30,27,24,22,79,49,30,30.54,30.37,8,1,9,0.00
2013-4-22,64,52,42,34,27,23,49,39,27,30.43,30.25,8,2,12,0.00
2013-4-23,72,58,41,40,34,28,62,43,28,30.26,29.98,8,0,8,0.00
2013-4-24,59,58,58,41,41,40,54,52,49,29.98,29.94,0,0,0,0.00
2013-4-30,67,62,58,52,48,47,66,62,54,30.19,30.12,8,1,8,0.00
2013-5-1,75,65,56,53,46,36,73,53,31,30.32,30.18,13,0,13,0.00
2013-5-2,80,66,53,48,40,35,53,39,29,30.34,30.20,9,0,9,0.00
2013-5-3,76,64,53,46,40,37,58,42,30,30.25,30.15,13,1,13,0.00
2013-5-4,72,60,48,43,36,27,52,42,30,30.21,30.08,15,2,15,0.00
2013-5-5,73,61,52,40,34,27,55,38,22,30.15,30.02,10,2,10,0.00
2013-5-6,68,58,51,50,45,36,76,62,49,30.08,30.00,12,2,12,0.01
2013-5-7,62,59,55,55,52,49,86,77,70,30.01,29.94,5,0,5,0.09
2013-5-8,72,60,52,52,49,48,88,70,46,29.98,29.89,0,0,0,0.29
2013-5-9,75,63,55,59,52,48,83,69,45,30.04,29.93,7,0,7,0.00
2013-5-10,79,66,58,61,55,50,87,69,52,30.04,29.86,11,0,11,0.22
2013-5-11,63,60,56,58,54,48,89,82,70,29.87,29.81,10,0,10,0.83
2013-5-12,55,50,43,46,30,28,81,47,39,30.09,29.88,13,3,13,0.01
2013-5-13,53,46,39,37,30,24,74,56,36,30.19,30.07,10,2,10,0.00
2013-5-14,63,50,32,40,35,27,81,59,40,30.20,29.93,8,0,8,0.00
2013-5-15,87,73,58,62,54,39,68,52,39,29.93,29.78,14,2,14,0.00
2013-5-16,74,72,71,54,53,52,52,50,49,29.86,29.85,6,1,6,0.00
2013-5-23,78,66,60,64,59,55,88,80,54,29.92,29.82,4,0,4,0.22
2013-5-24,59,46,42,54,38,30,86,73,54,30.27,29.89,9,1,9,0.01
2013-5-25,61,48,34,38,34,29,83,60,41,30.34,30.22,7,1,7,0.00
2013-5-26,67,54,38,40,36,31,78,53,36,30.31,30.22,2,0,2,0.00
2013-5-27,63,54,43,50,43,36,81,68,56,30.27,30.12,0,0,0,0.00
2013-5-28,82,71,59,62,57,49,79,62,50,30.12,30.03,4,1,4,0.00
2013-5-29,86,74,66,65,59,56,72,60,44,30.15,30.06,7,0,7,0.00
2013-5-30,90,77,63,67,62,56,78,60,43,30.24,30.11,5,0,5,0.00
2013-5-31,89,78,66,66,61,57,75,58,43,30.17,30.03,7,0,7,0.00
2013-6-1,88,77,66,68,64,60,87,65,49,30.08,29.88,6,0,6,0.29
2013-6-2,80,73,65,66,62,59,84,69,59,29.93,29.86,11,0,11,0.09
2013-6-3,69,64,58,60,57,50,86,77,64,30.07,29.91,4,0,4,0.00
2013-6-4,72,60,48,50,45,40,83,59,39,30.18,30.06,6,0,6,0.00
2013-6-5,83,66,50,63,55,46,85,68,48,30.14,29.95,5,0,5,0.00
2013-6-6,71,67,63,64,60,58,88,81,70,30.00,29.79,2,0,2,0.34
2013-6-7,65,63,62,62,59,55,90,87,77,29.88,29.77,4,0,4,0.21
2013-6-8,75,64,57,59,55,51,84,74,58,30.13,29.88,2,0,2,0.00
2013-6-9,85,72,59,64,60,55,87,68,48,30.18,30.04,4,0,4,0.00
2013-6-10,80,70,65,68,62,60,83,76,61,30.06,29.84,10,0,10,0.00
2013-6-11,79,68,62,64,60,57,85,77,61,29.95,29.86,8,0,8,0.00
2013-6-12,85,77,66,70,66,60,83,69,57,29.97,29.77,8,0,8,0.00
2013-6-13,74,66,59,69,61,54,89,85,79,29.84,29.63,9,0,9,1.22
2013-6-14,72,63,56,58,55,52,88,75,53,30.08,29.83,7,0,7,0.00
2013-6-15,80,67,54,60,54,50,87,64,42,30.17,30.05,5,0,5,0.00
2013-6-16,74,68,62,65,60,54,85,76,66,30.06,29.98,8,0,8,0.01
2013-6-17,83,73,67,67,64,60,85,73,55,30.03,29.95,4,0,4,0.00
2013-6-18,77,70,66,65,62,61,86,77,62,29.97,29.88,3,0,3,0.00
2013-6-19,77,69,62,61,56,50,81,65,45,30.16,29.96,5,0,5,0.00
2013-6-20,63,58,55,53,51,50,83,78,69,30.21,30.16,0,0,0,0.00
2013-6-21,86,72,59,65,58,53,82,62,41,30.27,30.19,1,0,1,0.00
2013-6-22,88,82,63,68,65,58,82,58,47,30.26,30.11,4,0,4,0.00
2013-6-23,73,69,67,64,62,60,80,76,69,30.21,30.14,0,0,0,0.00
2013-6-25,88,81,70,70,66,59,82,61,50,30.11,29.96,13,0,13,0.00
2013-6-26,80,73,66,70,66,61,89,80,67,30.00,29.87,5,0,6,0.84
2013-6-27,72,69,67,67,65,63,89,86,81,29.87,29.71,0,0,0,0.51
2013-6-28,80,70,65,70,64,60,90,83,66,29.71,29.59,9,0,9,0.10
2013-6-29,80,70,62,66,62,58,88,77,58,29.74,29.62,4,0,4,0.00
2013-6-30,86,74,63,69,63,59,89,70,47,29.87,29.73,4,0,8,0.00
2013-7-1,83,72,66,68,64,62,88,78,60,29.98,29.85,4,0,4,0.64
2013-7-2,84,74,66,71,66,63,90,76,55,30.11,29.98,3,0,3,0.18
2013-7-3,86,74,69,69,64,62,81,73,58,30.21,30.10,1,0,1,0.00
2013-7-4,87,77,70,70,66,63,85,70,52,30.26,30.14,8,0,8,0.12
2013-7-5,87,77,69,70,67,64,86,72,54,30.21,30.14,8,0,8,0.00
2013-7-6,92,80,69,71,68,64,83,67,50,30.22,30.07,5,0,5,0.00
2013-7-7,82,74,69,68,66,64,86,77,62,30.16,30.07,8,0,8,0.17
2013-7-8,84,74,66,68,65,60,86,73,59,30.18,30.11,0,0,0,0.00
2013-7-9,84,74,69,72,67,65,89,81,68,30.15,30.03,0,0,0,0.98
2013-7-10,85,73,66,74,67,62,90,84,61,30.11,29.90,0,0,0,0.87
2013-7-11,74,67,66,66,63,60,89,86,66,30.02,29.92,0,0,0,0.01
2013-7-12,71,65,61,63,60,56,90,84,72,30.13,30.00,0,0,0,0.92
2013-7-13,81,71,62,68,64,59,91,79,62,30.25,30.11,0,0,0,0.00
2013-7-14,90,81,71,70,67,64,78,64,49,30.32,30.24,5,0,5,0.00
2013-7-15,89,80,68,72,67,62,82,66,52,30.38,30.27,5,0,5,0.00
2013-7-16,88,77,70,73,69,64,86,76,57,30.36,30.26,8,0,15,0.04
2013-7-17,88,77,70,74,69,66,88,77,59,30.34,30.20,0,0,0,0.00
2013-7-18,92,81,70,75,71,66,86,72,54,30.22,30.08,1,0,1,0.00
2013-7-19,90,77,71,76,70,65,86,80,61,30.10,29.94,4,0,4,0.60
2013-7-20,81,71,68,72,67,64,90,87,70,30.00,29.89,2,0,2,1.16
2013-7-21,82,73,66,70,67,63,91,83,68,30.03,29.94,2,0,2,0.00
2013-7-22,80,72,68,72,67,64,89,85,73,29.99,29.83,0,0,0,1.05
2013-7-23,83,72,65,68,65,61,90,79,59,29.85,29.75,8,0,8,0.44
2013-7-24,70,66,62,63,57,52,90,74,55,30.02,29.80,6,0,6,0.00
2013-7-25,75,65,55,58,54,51,88,68,49,30.11,29.99,2,0,2,0.00
2013-7-26,81,68,55,60,55,49,84,64,44,30.13,30.03,3,0,3,0.00
2013-7-27,72,67,61,68,61,54,89,83,67,30.04,29.89,0,0,0,0.64
2013-7-28,78,69,62,64,59,52,90,73,52,30.08,29.89,6,0,6,0.44
2013-7-29,75,66,54,58,54,49,83,67,49,30.22,30.08,8,0,8,0.00
2013-7-30,77,69,59,61,57,54,83,68,53,30.26,30.17,6,0,6,0.00
2013-7-31,75,67,61,64,60,56,86,79,66,30.19,30.00,1,0,1,0.00
2013-8-1,79,71,66,68,63,61,89,77,57,30.00,29.90,7,0,7,0.02
2013-8-2,80,72,63,64,60,58,86,68,50,30.03,29.95,7,0,7,0.00
2013-8-3,70,67,65,65,62,60,88,82,71,30.04,29.99,1,0,1,0.01
2013-8-4,74,67,62,61,57,53,88,71,50,30.12,30.02,7,0,7,0.00
2013-8-5,76,66,54,58,53,50,85,65,44,30.16,30.04,7,0,7,0.00
2013-8-6,82,71,59,62,58,54,86,66,48,30.07,30.00,5,0,5,0.00
2013-8-7,88,74,66,71,65,60,88,75,54,30.04,29.95,4,0,4,0.61
2013-8-8,82,72,67,72,67,64,90,86,71,30.04,29.97,0,0,0,0.44
2013-8-9,80,73,70,72,69,67,91,88,75,30.06,29.95,2,0,2,0.76
2013-8-10,80,72,66,68,63,58,91,75,49,30.13,30.06,0,0,0,0.00
2013-8-11,84,74,62,66,63,58,86,70,52,30.15,30.05,0,0,0,0.00
2013-8-12,84,74,67,68,65,62,86,74,57,30.10,29.94,4,0,4,0.00
2013-8-13,76,69,61,68,62,50,90,79,59,29.99,29.85,8,0,8,0.81
2013-8-14,67,60,53,53,50,46,84,69,54,30.17,29.99,5,0,5,0.00
2013-8-15,74,64,50,55,51,46,87,64,47,30.21,30.11,0,0,0,0.00
2013-8-16,76,66,54,58,54,50,86,68,51,30.19,30.12,0,0,0,0.00
2013-8-17,77,67,57,58,55,52,85,66,46,30.26,30.18,0,0,0,0.00
2013-8-18,73,68,62,64,61,56,87,79,66,30.24,30.16,0,0,0,0.04
2013-8-19,79,70,66,67,64,62,88,80,66,30.17,30.10,0,0,0,0.02
2013-8-20,80,70,60,64,60,56,87,71,54,30.24,30.13,0,0,0,0.00
2013-8-21,69,63,60,62,58,56,88,83,75,30.22,30.18,0,0,0,0.00
2013-8-23,75,70,64,68,61,58,91,74,57,30.18,30.08,0,0,0,0.02
2013-8-24,81,69,58,62,58,54,87,69,45,30.32,30.17,0,0,0,0.00
2013-8-25,84,71,59,64,59,54,85,67,47,30.40,30.26,0,0,0,0.00
2013-8-26,85,72,60,67,61,55,85,69,52,30.30,30.08,0,0,0,0.00
2013-8-27,76,72,69,70,66,62,88,82,76,30.10,30.00,0,0,0,0.10
2013-8-28,78,73,69,73,69,66,90,88,84,30.01,29.87,0,0,0,0.21
2013-8-29,82,75,69,69,67,66,90,78,63,30.06,29.95,0,0,0,0.00
2013-8-30,88,76,65,70,66,61,88,73,54,30.06,29.89,0,0,0,0.00
2013-8-31,85,76,70,70,67,65,87,75,57,29.93,29.85,0,0,0,0.00
2013-9-1,82,74,69,70,66,64,84,77,65,29.92,29.83,0,0,0,0.40
2013-9-2,84,73,65,72,66,61,88,79,63,29.91,29.80,9,0,9,0.59
2013-9-3,75,67,61,62,58,53,89,76,55,30.08,29.88,8,0,8,0.00
2013-9-4,76,65,55,58,55,50,87,71,53,30.17,30.07,4,0,6,0.00
2013-9-5,75,66,59,61,56,47,84,71,53,30.21,30.12,7,0,7,0.00
2013-9-6,73,62,49,52,49,45,87,65,42,30.27,30.15,5,0,5,0.00
2013-9-7,79,65,51,57,52,46,86,67,41,30.15,30.01,8,0,8,0.00
2013-9-8,80,70,63,66,61,55,84,72,61,30.08,29.97,6,0,6,0.00
2013-9-9,86,74,63,69,64,58,88,74,57,30.14,30.05,6,0,6,0.00
2013-9-10,87,78,70,73,68,63,81,73,61,30.21,30.11,5,0,5,0.00
2013-9-11,86,77,71,74,69,66,85,77,66,30.21,30.08,4,0,4,0.00
2013-9-12,82,72,67,70,66,63,87,81,62,30.08,29.85,9,0,9,0.40
2013-9-13,68,60,52,63,52,44,87,74,53,30.05,29.85,8,1,8,0.00
2013-9-14,63,55,50,46,45,43,84,70,51,30.19,30.04,7,0,7,0.00
2013-9-15,74,59,46,56,50,41,87,71,51,30.21,30.09,5,0,5,0.00
2013-9-16,66,60,55,56,53,49,89,78,61,30.30,30.07,4,0,7,0.17
2013-9-17,69,58,49,55,48,44,89,70,44,30.38,30.25,4,0,4,0.00
2013-9-18,72,61,50,56,50,43,82,68,52,30.27,30.13,3,0,3,0.00
2013-9-19,77,67,62,61,59,55,87,74,56,30.18,30.06,8,0,8,0.00
2013-9-20,77,69,61,68,62,56,86,80,71,30.08,29.90,3,0,3,0.00
2013-9-21,72,64,57,65,59,54,90,85,77,29.90,29.72,8,0,8,0.50
2013-9-22,62,56,51,54,50,44,90,79,58,30.03,29.84,3,0,3,0.01
2013-9-23,56,51,46,46,43,40,87,76,61,30.15,30.03,0,0,0,0.00
2013-9-24,67,53,41,53,45,38,89,76,57,30.13,29.99,0,0,0,0.00
2013-9-25,74,60,48,57,51,44,89,75,54,30.00,29.89,0,0,0,0.00
2013-9-26,73,61,50,55,50,46,89,70,42,30.10,29.95,2,0,2,0.00
2013-9-27,74,60,48,55,50,44,89,71,47,30.20,30.09,0,0,0,0.00
2013-9-28,73,62,52,55,50,47,83,66,50,30.27,30.16,9,0,9,0.00
2013-9-29,75,63,54,56,51,46,79,66,50,30.18,30.04,3,0,6,0.00
2013-9-30,68,61,55,59,55,50,86,80,74,30.09,30.03,1,0,2,0.00
2013-10-1,76,64,57,62,56,53,87,77,54,30.14,30.05,7,0,7,0.00
2013-10-2,79,67,58,64,58,53,86,74,57,30.16,30.08,5,0,7,0.00
2013-10-3,80,69,60,65,61,55,86,75,59,30.15,30.06,3,0,4,0.00
2013-10-4,82,71,64,66,62,60,87,75,57,30.17,30.08,4,0,6,0.00
2013-10-5,84,73,64,67,63,59,85,72,55,30.14,30.02,4,0,4,0.00
2013-10-6,86,74,66,65,61,56,81,64,44,30.04,29.82,6,0,8,0.00
2013-10-7,72,58,48,58,48,41,87,70,53,30.15,29.75,8,1,8,0.09
2013-10-8,66,53,42,47,43,38,86,70,48,30.31,30.14,4,0,8,0.00
2013-10-9,69,54,42,46,41,38,87,65,33,30.32,30.23,5,0,7,0.00
2013-10-10,68,58,52,52,46,40,79,65,56,30.24,30.09,5,0,5,0.00
2013-10-11,58,55,52,53,51,48,89,86,79,30.10,30.06,0,0,3,0.00
2013-10-12,71,62,55,60,55,52,88,80,67,30.17,30.06,4,0,6,0.00
2013-10-13,74,65,59,58,55,52,81,71,58,30.26,30.16,7,0,8,0.00
2013-10-14,64,60,59,57,54,52,86,80,76,30.30,30.23,3,0,3,0.00
2013-10-15,72,62,53,58,54,49,89,75,58,30.24,30.02,2,0,3,0.00
2013-10-16,70,63,57,58,53,47,81,69,60,30.03,29.92,0,0,5,0.00
2013-10-17,63,57,49,58,53,45,89,87,82,29.95,29.73,8,0,12,0.00
2013-10-18,62,52,45,46,42,38,87,71,48,30.08,29.95,6,0,7,0.00
2013-10-19,55,46,39,46,40,35,87,80,71,30.02,29.81,9,0,10,0.00
2013-10-20,59,47,39,41,37,35,86,69,47,30.09,29.98,5,0,8,0.00
2013-10-21,67,52,39,43,38,33,79,59,38,30.09,29.90,3,0,9,0.00
2013-10-22,55,49,41,43,38,33,84,66,54,30.00,29.88,6,0,7,0.00
2013-10-23,42,39,36,36,34,32,86,83,76,29.97,29.77,2,0,7,0.00
2013-10-24,49,37,33,40,32,29,86,82,60,30.17,29.96,2,0,3,0.21
2013-10-25,44,36,31,35,30,27,87,80,63,30.37,30.16,2,0,5,0.02
2013-10-26,53,42,32,32,28,26,81,61,41,30.29,29.94,7,1,9,0.00
2013-10-27,55,45,36,34,31,28,74,59,43,30.12,30.01,6,0,6,0.00
2013-10-28,62,46,32,40,34,28,86,65,40,30.28,30.11,5,0,5,0.00
2013-10-29,60,47,34,39,35,30,84,66,44,30.38,30.25,2,0,3,0.00
2013-10-30,60,53,46,54,46,37,84,76,68,30.25,30.14,2,0,3,0.00
2013-10-31,69,62,58,56,54,52,85,75,58,30.13,29.56,7,0,7,0.05
2013-11-1,70,60,52,56,49,42,87,68,49,29.75,29.44,12,2,15,0.13
2013-11-2,53,50,45,43,41,37,77,71,60,29.98,29.70,13,1,13,0.00
2013-11-3,49,43,35,38,32,27,82,66,44,30.42,29.98,8,1,8,0.00
2013-11-4,50,40,29,29,27,25,86,62,42,30.50,30.39,7,0,8,0.00
2013-11-5,58,47,38,35,30,25,64,51,40,30.50,30.34,3,0,8,0.00
2013-11-6,75,60,45,52,45,30,77,58,42,30.34,29.95,11,0,11,0.00
2013-11-7,64,48,38,51,38,25,87,70,53,30.18,29.90,12,3,13,0.50
2013-11-8,45,38,31,29,26,23,73,61,47,30.30,30.12,12,2,12,0.00
2013-11-9,58,43,29,32,26,22,80,54,33,30.28,30.02,11,1,18,0.00
2013-11-10,50,45,37,34,28,25,62,52,41,30.29,30.03,17,4,17,0.00
2013-11-11,52,41,30,36,28,23,77,61,44,30.30,30.04,10,1,10,0.00
2013-11-12,45,31,26,37,24,19,87,77,61,30.47,30.06,10,2,13,0.06
2013-11-13,36,28,21,23,20,16,81,71,58,30.52,30.38,8,1,8,0.02
2013-11-14,49,37,27,27,21,18,73,55,40,30.39,30.19,8,1,11,0.01
2013-11-15,59,47,36,39,26,19,73,46,31,30.25,30.14,8,1,9,0.01
2013-11-16,65,53,41,50,44,36,85,72,58,30.24,30.06,7,0,7,0.00
2013-11-17,67,60,52,57,51,44,84,73,59,30.06,29.61,11,1,16,0.30
2013-11-18,58,49,41,47,35,25,84,60,41,30.06,29.75,14,3,16,0.00
2013-11-19,40,36,30,25,24,21,74,61,54,30.37,30.07,10,2,13,0.00
2013-11-20,50,37,27,23,19,16,81,51,28,30.42,30.32,9,1,10,0.00
2013-11-21,59,46,34,41,31,18,64,56,47,30.40,30.24,0,0,0,0.00
2013-11-22,54,51,40,50,46,35,88,82,64,30.24,30.08,9,0,10,0.35
2013-11-23,40,33,22,35,23,9,84,67,51,30.33,30.13,14,2,19,0.00
2013-11-24,24,19,15,12,7,5,71,58,48,30.50,30.33,14,4,14,0.00
2013-11-25,42,28,14,17,11,6,72,52,31,30.49,30.21,9,0,9,0.00
2013-11-26,38,35,33,33,30,17,89,82,43,30.22,29.70,5,0,8,1.21
2013-11-27,34,28,23,31,23,14,89,82,66,30.14,29.72,0,0,8,0.02
2013-11-28,32,26,20,22,18,12,78,72,64,30.41,30.14,2,0,4,0.01
2013-11-29,36,30,26,22,21,19,78,69,56,30.60,30.41,0,0,0,0.01
2013-11-30,45,34,26,28,22,17,74,63,52,30.57,30.23,0,0,4,0.00
2013-12-1,48,41,33,32,28,23,70,60,50,30.23,29.98,2,0,7,0.00
2013-12-2,53,45,40,37,34,30,73,65,54,29.98,29.83,0,0,4,0.00
2013-12-3,58,46,38,41,36,32,81,69,52,29.92,29.84,6,0,6,0.00
2013-12-4,62,52,42,48,42,35,79,69,58,30.00,29.89,0,0,0,0.00
2013-12-5,69,59,45,57,51,41,89,77,62,30.03,29.90,9,0,9,0.93
2013-12-6,45,35,30,41,32,27,89,88,87,30.25,30.02,7,0,8,0.67
2013-12-7,30,27,23,27,22,17,88,81,74,30.52,30.22,0,0,2,0.00
2013-12-8,35,28,22,31,22,16,87,80,76,30.51,30.06,6,0,6,0.00
2013-12-9,42,37,32,38,33,26,90,85,78,30.15,29.97,7,0,8,0.18
2013-12-10,32,28,25,26,21,15,84,75,65,30.24,30.00,9,1,9,0.00
2013-12-11,34,27,19,19,16,13,77,65,54,30.36,30.22,11,2,12,0.01
2013-12-12,26,21,15,16,8,4,72,58,45,30.46,30.26,11,3,14,0.00
2013-12-13,38,28,20,19,13,8,60,54,45,30.26,30.19,9,1,9,0.00
2013-12-14,43,36,32,39,29,17,88,75,52,30.21,29.68,5,0,8,0.32
2013-12-15,42,32,27,38,26,20,88,80,71,30.00,29.65,13,3,13,0.02
2013-12-16,29,27,24,25,22,19,87,82,77,30.14,30.01,8,1,9,0.00
2013-12-17,36,33,29,31,28,23,87,82,75,30.03,29.94,6,1,9,0.08
2013-12-18,33,29,27,23,21,20,78,73,64,30.20,30.04,10,2,10,0.00
2013-12-19,58,44,30,38,27,17,70,51,44,30.14,30.04,9,2,12,0.00
2013-12-20,60,52,45,48,37,26,79,57,44,30.05,29.93,8,2,16,0.02
2013-12-21,62,60,56,57,52,48,88,77,68,29.94,29.72,8,2,12,0.16
2013-12-22,70,60,56,57,53,49,87,78,61,29.98,29.64,14,3,30,0.18
2013-12-23,56,40,30,49,35,21,88,82,69,30.27,29.97,8,1,9,0.28
2013-12-24,30,24,16,23,14,6,81,66,50,30.48,30.22,14,3,16,0.00
2013-12-25,32,24,14,19,13,6,74,63,53,30.46,30.20,4,0,4,0.00
2013-12-26,40,33,28,27,21,16,81,64,49,30.34,30.15,9,2,10,0.01
2013-12-27,45,34,26,25,20,16,69,57,40,30.39,30.29,10,1,10,0.00
2013-12-28,52,41,33,31,24,20,57,51,43,30.30,30.07,10,1,10,0.00
2013-12-29,43,41,39,39,35,24,89,80,48,30.07,29.65,4,0,5,0.82
2013-12-30,39,29,24,36,25,18,88,82,75,30.16,29.87,8,2,8,0.02
2013-12-31,28,26,23,23,19,16,84,75,67,30.30,30.07,10,2,11,0.00
2014-1-1,46,34,24,28,22,17,78,64,46,30.31,30.03,7,1,8,0.00
2014-1-2,32,27,13,27,22,8,87,82,75,30.03,29.65,4,0,6,0.00